Weather History for Saratoga Shively Field Airpor, WY

Change the Weather History Date:

Sunday, February 9, 2014

  Actual Average Record
Temperature  
Mean Temperature 30 °F -  
Max Temperature 37 °F 35 °F 37 °F (2014)
Min Temperature 23 °F 7 °F 23 °F (2014)
Degree Days  
Heating Degree Days 35    
Moisture  
Dew Point 28 °F    
Average Humidity 84    
Maximum Humidity 100    
Minimum Humidity 70    
Precipitation  
Precipitation 0.00 in - - ()
Sea Level Pressure  
Sea Level Pressure 29.88 in    
Wind  
Wind Speed 21 mph (WSW)    
Max Wind Speed 37 mph    
Max Gust Speed 44 mph    
Visibility 9 miles    
Events Snow    
Averages and records for this station are not official NWS values.
T = Trace of Precipitation, MM = Missing Value Source: NWS Daily Summary

Daily Weather History Graph

Daily Weather History Graph

Search for Another Location

Airport:

Trip Planner

Search our weather history database for the weather conditions in past years. The results will help you decide how hot, cold, wet, or windy it might be!

Date:

Astronomy

Feb. 09, 2014 Rise Set
Actual Time 7:09 AM MST 5:33 PM MST
Civil Twilight 6:41 AM MST 6:02 PM MST
Nautical Twilight 6:08 AM MST 6:35 PM MST
Astronomical Twilight 5:36 AM MST 7:07 PM MST
Moon 1:14 PM MST (2/9) 3:18 AM MST (2/9)
Length of Visible Light 11h 21m
Length of Day
10h 23m
Waxing Gibbous, 77% of the Moon is Illuminated
Feb 9
Waxing Gibbous
Feb 14
Full
Feb 22
Last Quarter
Mar 1
New
Mar 8
First Quarter

Hourly Weather History & Observations

Time (MST) Temp. Windchill Dew Point Humidity Pressure Visibility Wind Dir Wind Speed Gust Speed Precip Events Conditions
12:15 AM 32.0 °F 22.5 °F 30.2 °F 93% 29.86 in 5.0 mi WSW 12.7 mph - N/A Snow Light Snow
12:35 AM 32.0 °F 23.0 °F 32.0 °F 100% 29.85 in 5.0 mi WSW 11.5 mph - N/A Snow Light Snow
12:55 AM 32.0 °F 23.6 °F 32.0 °F 100% 29.84 in 1.2 mi West 10.4 mph - N/A Snow Light Snow
1:15 AM 32.0 °F 26.4 °F 32.0 °F 100% 29.84 in 3.0 mi WSW 5.8 mph - N/A Snow Light Snow
1:35 AM 32.0 °F 20.1 °F 32.0 °F 100% 29.82 in 3.0 mi SW 19.6 mph 25.3 mph N/A Snow Light Snow
1:55 AM 33.8 °F 20.5 °F 32.0 °F 93% 29.82 in 5.0 mi WSW 27.6 mph 34.5 mph N/A Snow Light Snow
2:15 AM 32.0 °F 18.1 °F 32.0 °F 100% 29.81 in 5.0 mi WSW 27.6 mph 38.0 mph N/A   Overcast
2:35 AM 32.0 °F 17.4 °F 32.0 °F 100% 29.81 in 3.0 mi WSW 31.1 mph 41.4 mph N/A Snow Light Snow
2:55 AM 32.0 °F 17.2 °F 32.0 °F 100% 29.80 in 3.0 mi WSW 32.2 mph 41.4 mph N/A   Scattered Clouds
3:15 AM 33.8 °F 19.4 °F 30.2 °F 87% 29.80 in 10.0 mi WSW 33.4 mph 41.4 mph N/A   Clear
3:35 AM 33.8 °F 19.6 °F 30.2 °F 87% 29.80 in 10.0 mi WSW 32.2 mph 39.1 mph N/A   Clear
3:55 AM 33.8 °F 20.5 °F 30.2 °F 87% 29.80 in 10.0 mi WSW 27.6 mph 36.8 mph N/A   Clear
4:15 AM 33.8 °F 20.5 °F 30.2 °F 87% 29.79 in 10.0 mi WSW 27.6 mph 36.8 mph N/A   Clear
4:35 AM 33.8 °F 20.3 °F 30.2 °F 87% 29.80 in 10.0 mi WSW 28.8 mph 40.3 mph N/A   Clear
4:55 AM 33.8 °F 20.1 °F 30.2 °F 87% 29.80 in 10.0 mi WSW 29.9 mph 35.7 mph N/A   Clear
5:15 AM 33.8 °F 20.8 °F 30.2 °F 87% 29.80 in 10.0 mi WSW 26.5 mph 40.3 mph N/A   Scattered Clouds
5:35 AM 33.8 °F 19.6 °F 30.2 °F 87% 29.81 in 10.0 mi WSW 32.2 mph 39.1 mph N/A   Mostly Cloudy
5:55 AM 33.8 °F 20.1 °F 30.2 °F 87% 29.80 in 10.0 mi WSW 29.9 mph 35.7 mph N/A   Scattered Clouds
6:15 AM 33.8 °F 19.9 °F 30.2 °F 87% 29.80 in 10.0 mi WSW 31.1 mph 42.6 mph N/A   Clear
6:35 AM 33.8 °F 18.8 °F 30.2 °F 87% 29.80 in 10.0 mi WSW 36.8 mph 43.7 mph N/A   Clear
6:55 AM 32.0 °F 17.4 °F 30.2 °F 93% 29.80 in 10.0 mi WSW 31.1 mph 38.0 mph N/A   Clear
7:15 AM 33.8 °F 19.4 °F 30.2 °F 87% 29.80 in 10.0 mi WSW 33.4 mph 42.6 mph N/A   Clear
7:35 AM 33.8 °F 20.1 °F 30.2 °F 87% 29.81 in 10.0 mi WSW 29.9 mph 38.0 mph N/A   Clear
7:55 AM 33.8 °F 20.8 °F 30.2 °F 87% 29.84 in 10.0 mi WSW 26.5 mph 33.4 mph N/A   Clear
8:15 AM 33.8 °F 21.6 °F 30.2 °F 87% 29.85 in 10.0 mi WSW 23.0 mph 32.2 mph N/A   Clear
8:35 AM 33.8 °F 21.3 °F 30.2 °F 87% 29.86 in 10.0 mi WSW 24.2 mph 33.4 mph N/A   Clear
8:55 AM 33.8 °F 21.6 °F 30.2 °F 87% 29.87 in 10.0 mi WSW 23.0 mph 28.8 mph N/A   Clear
9:15 AM 35.6 °F 24.8 °F 30.2 °F 81% 29.87 in 10.0 mi WSW 19.6 mph 31.1 mph N/A   Clear
9:35 AM 35.6 °F 24.5 °F 30.2 °F 81% 29.88 in 10.0 mi WSW 20.7 mph 27.6 mph N/A   Mostly Cloudy
9:55 AM 35.6 °F 23.4 °F 30.2 °F 81% 29.88 in 10.0 mi West 25.3 mph 31.1 mph N/A   Overcast
10:15 AM 35.6 °F 23.7 °F 32.0 °F 87% 29.88 in 10.0 mi WSW 24.2 mph 31.1 mph N/A   Overcast
10:35 AM 35.6 °F 24.5 °F 32.0 °F 87% 29.87 in 10.0 mi WSW 20.7 mph 28.8 mph N/A   Overcast
10:55 AM 35.6 °F 24.0 °F 32.0 °F 87% 29.88 in 10.0 mi WSW 23.0 mph 27.6 mph N/A   Overcast
11:15 AM 37.4 °F 25.9 °F 32.0 °F 81% 29.88 in 10.0 mi West 25.3 mph 34.5 mph N/A   Mostly Cloudy
11:35 AM 37.4 °F 25.4 °F 30.2 °F 75% 29.88 in 10.0 mi WSW 27.6 mph 40.3 mph N/A   Scattered Clouds
11:55 AM 37.4 °F 25.9 °F 30.2 °F 75% 29.88 in 10.0 mi WSW 25.3 mph 39.1 mph N/A   Scattered Clouds
12:15 PM 37.4 °F 26.1 °F 30.2 °F 75% 29.88 in 10.0 mi WSW 24.2 mph 31.1 mph N/A   Scattered Clouds
12:35 PM 37.4 °F 26.6 °F 30.2 °F 75% 29.87 in 10.0 mi WSW 21.9 mph 34.5 mph N/A   Mostly Cloudy
12:55 PM 37.4 °F 25.0 °F 30.2 °F 75% 29.87 in 10.0 mi WSW 29.9 mph 39.1 mph N/A   Overcast
1:17 PM 37.4 °F 26.1 °F 30.2 °F 75% 29.87 in 10.0 mi West 24.2 mph 32.2 mph N/A   Overcast
1:35 PM 37.4 °F 27.5 °F 30.2 °F 75% 29.87 in 10.0 mi West 18.4 mph 27.6 mph N/A   Overcast
1:55 PM 37.4 °F 26.1 °F 28.4 °F 70% 29.87 in 10.0 mi West 24.2 mph 34.5 mph N/A   Mostly Cloudy
2:15 PM 35.6 °F 24.0 °F 28.4 °F 75% 29.87 in 10.0 mi West 23.0 mph 33.4 mph N/A   Mostly Cloudy
2:35 PM 35.6 °F 23.7 °F 28.4 °F 75% 29.87 in 10.0 mi West 24.2 mph 32.2 mph N/A   Overcast
2:55 PM 35.6 °F 23.7 °F 28.4 °F 75% 29.88 in 10.0 mi West 24.2 mph 31.1 mph N/A   Overcast
3:15 PM 35.6 °F 23.0 °F 26.6 °F 70% 29.89 in 10.0 mi West 27.6 mph 35.7 mph N/A   Overcast
3:35 PM 33.8 °F 22.2 °F 26.6 °F 75% 29.90 in 10.0 mi West 20.7 mph 31.1 mph N/A   Overcast
3:55 PM 33.8 °F 21.6 °F 26.6 °F 75% 29.90 in 10.0 mi West 23.0 mph 34.5 mph N/A   Overcast
4:15 PM 33.8 °F 22.8 °F 28.4 °F 81% 29.91 in 10.0 mi West 18.4 mph 32.2 mph N/A   Overcast
4:35 PM 32.0 °F 19.5 °F 28.4 °F 87% 29.91 in 10.0 mi WSW 21.9 mph 29.9 mph N/A   Overcast
4:55 PM 32.0 °F 19.5 °F 26.6 °F 80% 29.92 in 10.0 mi West 21.9 mph 29.9 mph N/A   Overcast
5:15 PM 32.0 °F 20.1 °F 26.6 °F 80% 29.92 in 10.0 mi West 19.6 mph 27.6 mph N/A   Overcast
5:35 PM 32.0 °F 19.8 °F 28.4 °F 87% 29.93 in 10.0 mi WSW 20.7 mph 27.6 mph N/A   Overcast
5:55 PM 32.0 °F 20.1 °F 26.6 °F 80% 29.93 in 10.0 mi WSW 19.6 mph 26.5 mph N/A   Overcast
6:15 PM 32.0 °F 19.2 °F 26.6 °F 80% 29.94 in 10.0 mi WSW 23.0 mph 31.1 mph N/A   Overcast
6:35 PM 32.0 °F 19.2 °F 26.6 °F 80% 29.95 in 10.0 mi WSW 23.0 mph 27.6 mph N/A   Overcast
6:55 PM 32.0 °F 21.2 °F 26.6 °F 80% 29.97 in 10.0 mi West 16.1 mph 26.5 mph N/A   Overcast
7:15 PM 32.0 °F 19.5 °F 26.6 °F 80% 29.96 in 10.0 mi West 21.9 mph 31.1 mph N/A   Mostly Cloudy
7:35 PM 32.0 °F 21.2 °F 26.6 °F 80% 29.96 in 10.0 mi WSW 16.1 mph 24.2 mph N/A   Overcast
7:55 PM 30.2 °F 18.1 °F 24.8 °F 80% 29.96 in 10.0 mi WSW 18.4 mph 25.3 mph N/A   Mostly Cloudy
8:15 PM 30.2 °F 19.3 °F 24.8 °F 80% 29.96 in 10.0 mi WSW 15.0 mph 20.7 mph N/A   Clear
8:35 PM 28.4 °F 18.5 °F 24.8 °F 86% 29.97 in 10.0 mi WSW 11.5 mph 19.6 mph N/A   Clear
8:55 PM 28.4 °F 18.0 °F 23.0 °F 80% 29.97 in 10.0 mi WSW 12.7 mph - N/A   Clear
9:15 PM 28.4 °F 19.7 °F 23.0 °F 80% 29.97 in 10.0 mi West 9.2 mph - N/A   Clear
9:35 PM 28.4 °F 20.4 °F 23.0 °F 80% 29.97 in 10.0 mi WSW 8.1 mph - N/A   Clear
9:55 PM 26.6 °F 20.0 °F 21.2 °F 80% 29.98 in 10.0 mi WSW 5.8 mph - N/A   Clear
10:15 PM 26.6 °F - 21.2 °F 80% 29.98 in 10.0 mi Calm Calm - N/A   Clear
10:35 PM 26.6 °F 22.6 °F 21.2 °F 80% 29.98 in 10.0 mi East 3.5 mph - N/A   Clear
10:55 PM 24.8 °F 20.5 °F 21.2 °F 86% 29.98 in 10.0 mi South 3.5 mph - N/A   Clear
11:15 PM 26.6 °F 22.6 °F 21.2 °F 80% 29.98 in 10.0 mi SW 3.5 mph - N/A   Clear
11:35 PM 23.0 °F 17.0 °F 19.4 °F 86% 29.97 in 10.0 mi East 4.6 mph - N/A   Clear
11:55 PM 24.8 °F 17.9 °F 21.2 °F 86% 29.97 in 10.0 mi SW 5.8 mph - N/A   Clear